Location: Champseau
(45.8333°N, 1.7667°E)
Time: 04:20:20
(UTC+00:00)

Resurs 01 Rocket - Pass Details

Date: 18 April 2021
Orbit: 634 x 644 km, 97.9° (Epoch: 10 May)

Event Time Altitude Azimuth Distance (km) Brightness Sun altitude
Exits shadow 19:12:45 - 114° (ESE) 2,307 3.8 -5.6°
Reaches altitude 10° 19:13:38 10° 107° (ESE) 2,041 3.5 -5.7°
Maximum altitude 19:16:44 19° 63° (ENE) 1,540 3.2 -6.2°
Drops below altitude 10° 19:19:50 10° 18° (NNE) 2,052 4.3 -6.7°
Sets 19:22:35 0° 1° (N) 2,967 5.4 -7.1°
